Zurück zum Katalog

THORAD AGENA D DEB

AktivLEO
NORAD 42554·DEBRIS·🇺🇸 United States

Gestartet Apr 8, 1970 von Vandenberg Space Force Base

Loading…

Nächste Überflüge (nächste 24 Stunden)

TLE

AlterndSource: Space-Track

Epoche: Sep 10, 2026, 06:52 UTC

1 42554U 70025TL  26253.28611343  .00000524  00000-0  54070-3 0  9990
2 42554 100.0712  66.2267 0040234 190.7586 169.2707 13.80944403597651

Verfolge THORAD AGENA D DEB in Echtzeit mit AllMySat

Download on the App Store